EW5655 Weather Reports


Display with metric or nautical units.
time (UTC)temp
F
wind
direction
speed
MPH
gust
MPH
rain 1hr
in
rain 24hr
in
rain mn
in
humidity
%
barometer
mb
20260505153026 64 311 3.0 8.0 0.00 0.00 0.00 44 1014.4
20260505152526 64 272 3.0 8.0 0.00 0.00 0.00 43 1014.4
20260505152025 64 276 3.0 7.0 0.00 0.00 0.00 44 1014.4
20260505151533 63 323 3.0 6.0 0.00 0.00 0.00 46 1014.4
20260505151026 63 307 2.0 5.0 0.00 0.00 0.00 47 1014.4
20260505150529 63 281 1.0 4.0 0.00 0.00 0.00 47 1014.4
20260505140518 60 239 0.0 1.0 0.00 0.00 0.00 55 1014.6
20260505125002 57 319 0.0 2.0 0.00 0.00 0.00 59 1014.2
20260505124501 57 319 0.0 2.0 0.00 0.00 0.00 58 1014.0
20260505124000 57 319 0.0 2.0 0.00 0.00 0.00 58 1014.1
20260505123559 57 319 0.0 4.0 0.00 0.00 0.00 58 1014.0
20260505123100 57 319 1.0 4.0 0.00 0.00 0.00 58 1014.0
20260505122558 57 319 0.0 4.0 0.00 0.00 0.00 57 1014.0
20260505122158 57 319 0.0 4.0 0.00 0.00 0.00 57 1014.0
20260505121600 57 303 0.0 2.0 0.00 0.00 0.00 57 1013.9
20260505121057 57 303 0.0 4.0 0.00 0.00 0.00 55 1013.8
20260505120555 58 303 0.0 4.0 0.00 0.00 0.00 55 1013.7
20260505120111 58 303 0.0 4.0 0.00 0.00 0.00 55 1013.8
20260505115555 59 303 0.0 4.0 0.00 0.00 0.00 53 1013.7
20260505115055 59 303 0.0 5.0 0.00 0.00 0.00 53 1013.8
20260505114557 59 303 0.0 5.0 0.00 0.00 0.00 52 1013.7
20260505114054 59 303 1.0 4.0 0.00 0.00 0.00 52 1013.7
20260505113559 59 303 1.0 4.0 0.00 0.00 0.00 51 1013.7
20260505113103 59 294 0.0 4.0 0.00 0.00 0.00 50 1013.6
20260505112553 59 294 0.0 5.0 0.00 0.00 0.00 51 1013.6
20260505112053 59 294 1.0 5.0 0.00 0.00 0.00 50 1013.5
20260505111555 59 286 1.0 5.0 0.00 0.00 0.00 49 1013.4
20260505111054 59 276 1.0 4.0 0.00 0.00 0.00 49 1013.4
20260505110553 60 263 1.0 5.0 0.00 0.00 0.00 49 1013.5
20260505102051 58 269 0.0 1.0 0.00 0.00 0.00 54 1013.8
20260505101556 58 269 0.0 0.0 0.00 0.00 0.00 53 1013.6
20260505101051 58 269 0.0 1.0 0.00 0.00 0.00 53 1013.5
20260505100550 58 269 0.0 1.0 0.00 0.00 0.00 53 1013.5
20260505100049 58 269 0.0 1.0 0.00 0.00 0.00 52 1013.6
20260505095548 59 269 0.0 2.0 0.00 0.00 0.00 51 1013.4
20260505095052 58 269 0.0 1.0 0.00 0.00 0.00 52 1013.4
20260505094558 58 269 0.0 0.0 0.00 0.00 0.00 52 1013.5
20260505094047 59 269 0.0 0.0 0.00 0.00 0.00 50 1013.4
20260505093550 59 269 0.0 0.0 0.00 0.00 0.00 50 1013.4
20260505093053 60 269 0.0 1.0 0.00 0.00 0.00 49 1013.3
20260505092544 60 269 0.0 1.0 0.00 0.00 0.00 47 1013.3
20260505092049 61 269 0.0 4.0 0.00 0.00 0.00 45 1013.3
20260505091544 60 269 1.0 4.0 0.00 0.00 0.00 45 1013.3
20260505091044 60 265 1.0 5.0 0.00 0.00 0.00 45 1013.2
20260505090543 60 244 2.0 5.0 0.00 0.00 0.00 45 1013.5
20260505090044 60 244 1.0 6.0 0.00 0.00 0.00 46 1013.6
20260505085545 61 248 3.0 6.0 0.00 0.00 0.00 45 1013.7
20260505085047 61 276 3.0 6.0 0.00 0.00 0.00 46 1013.7
20260505084543 61 255 3.0 7.0 0.00 0.00 0.00 45 1013.7
20260505084042 61 261 4.0 7.0 0.00 0.00 0.00 45 1013.6
20260505083544 61 258 4.0 7.0 0.00 0.00 0.00 44 1013.8
20260505083055 61 244 3.0 5.0 0.00 0.00 0.00 45 1013.8
20260505082541 60 199 1.0 4.0 0.00 0.00 0.00 49 1013.9
20260505082040 60 199 1.0 2.0 0.00 0.00 0.00 49 1013.9
20260505081540 60 199 1.0 2.0 0.00 0.00 0.00 48 1013.9
20260505081039 60 199 0.0 2.0 0.00 0.00 0.00 49 1013.9
20260505080537 61 199 0.0 1.0 0.00 0.00 0.00 46 1013.9
20260505080041 61 199 0.0 0.0 0.00 0.00 0.00 46 1013.9
20260505075534 62 199 0.0 1.0 0.00 0.00 0.00 43 1013.8
20260505075035 63 199 0.0 4.0 0.00 0.00 0.00 41 1013.9
20260505074534 63 199 1.0 3.0 0.00 0.00 0.00 41 1013.9
20260505074033 63 195 0.0 4.0 0.00 0.00 0.00 40 1013.7
20260505072511 63 268 0.0 4.0 0.00 0.00 0.00 37 1014.0
20260505072011 64 286 0.0 5.0 0.00 0.00 0.00 36 1014.0
20260505071510 64 269 2.0 6.0 0.00 0.00 0.00 35 1014.0
20260505071010 64 286 2.0 6.0 0.00 0.00 0.00 35 1013.8
20260505070509 64 260 2.0 6.0 0.00 0.00 0.00 34 1013.8
20260505070017 64 255 4.0 6.0 0.00 0.00 0.00 34 1013.6
20260505065508 64 265 3.0 5.0 0.00 0.00 0.00 33 1013.3
20260505065007 64 252 2.0 6.0 0.00 0.00 0.00 33 1013.3
20260505064512 64 244 3.0 6.0 0.00 0.00 0.00 33 1013.5
20260505064005 64 252 2.0 3.0 0.00 0.00 0.00 33 1013.5
20260505063505 63 300 1.0 2.0 0.00 0.00 0.00 35 1013.6
20260505063005 63 300 0.0 2.0 0.00 0.00 0.00 35 1013.7
20260505062504 63 300 0.0 2.0 0.00 0.00 0.00 35 1013.6
20260505062002 63 300 0.0 2.0 0.00 0.00 0.00 35 1013.6
20260505061504 63 300 0.0 0.0 0.00 0.00 0.00 37 1013.5
20260505061002 63 300 0.0 0.0 0.00 0.00 0.00 37 1013.7
20260505060604 63 300 0.0 0.0 0.00 0.00 0.00 35 1013.7
20260505055600 63 300 0.0 0.0 0.00 0.00 0.00 37 1013.9
20260505055059 63 300 0.0 1.0 0.00 0.00 0.00 36 1013.9
20260505054559 63 300 0.0 1.0 0.00 0.00 0.00 35 1014.0
20260505054058 63 300 0.0 2.0 0.00 0.00 0.00 36 1013.9
20260505053558 63 300 0.0 2.0 0.00 0.00 0.00 38 1013.9
20260505053059 63 300 0.0 0.0 0.00 0.00 0.00 37 1013.8
20260505052558 64 300 0.0 0.0 0.00 0.00 0.00 35 1013.7
20260505052058 64 300 0.0 0.0 0.00 0.00 0.00 34 1013.7
20260505051558 64 300 0.0 0.0 0.00 0.00 0.00 34 1013.9
20260505051059 65 300 0.0 0.0 0.00 0.00 0.00 35 1013.7
20260505050557 65 300 0.0 0.0 0.00 0.00 0.00 34 1013.7
20260505041604 69 232 1.0 5.0 0.00 0.00 0.00 22 1013.7
20260505041057 70 271 1.0 5.0 0.00 0.00 0.00 21 1013.7
20260505040555 70 259 2.0 5.0 0.00 0.00 0.00 21 1013.7
20260505035555 71 268 3.0 9.0 0.00 0.00 0.00 20 1013.6
20260505035057 71 261 4.0 9.0 0.00 0.00 0.00 20 1013.5
20260505034556 71 253 6.0 12.0 0.00 0.00 0.00 19 1013.5
20260505034054 72 246 5.0 12.0 0.00 0.00 0.00 19 1013.5
20260505033554 72 263 5.0 10.0 0.00 0.00 0.00 19 1013.3
20260505033101 72 281 5.0 13.0 0.00 0.00 0.00 19 1013.2
20260505032552 72 246 8.0 13.0 0.00 0.00 0.00 18 1013.1
20260505032054 72 242 5.0 11.0 0.00 0.00 0.00 19 1013.1
20260505031555 72 267 3.0 8.0 0.00 0.00 0.00 19 1013.0
20260505031050 73 305 4.0 8.0 0.00 0.00 0.00 19 1013.0
20260505030553 73 234 4.0 10.0 0.00 0.00 0.00 19 1012.8
20260505030050 73 259 4.0 8.0 0.00 0.00 0.00 19 1012.8
20260505025550 73 242 4.0 8.0 0.00 0.00 0.00 19 1012.8
20260505025050 73 292 4.0 10.0 0.00 0.00 0.00 19 1012.8
20260505024549 74 291 3.0 10.0 0.00 0.00 0.00 19 1012.7
20260505024049 74 301 3.0 11.0 0.00 0.00 0.00 19 1012.8
20260505023549 74 254 5.0 11.0 0.00 0.00 0.00 19 1012.8
20260505023049 74 281 5.0 11.0 0.00 0.00 0.00 19 1012.6
20260505022549 75 276 5.0 11.0 0.00 0.00 0.00 19 1012.6
20260505022052 75 300 6.0 12.0 0.00 0.00 0.00 20 1012.5
20260505021550 75 286 5.0 12.0 0.00 0.00 0.00 20 1012.4
20260505021048 75 246 5.0 11.0 0.00 0.00 0.00 21 1012.4
20260505020549 75 292 5.0 12.0 0.00 0.00 0.00 22 1012.4
20260505020050 75 269 5.0 10.0 0.00 0.00 0.00 22 1012.3
20260505015548 75 271 5.0 10.0 0.00 0.00 0.00 22 1012.2
20260505015048 75 286 4.0 10.0 0.00 0.00 0.00 22 1012.1
20260505014547 76 313 6.0 10.0 0.00 0.00 0.00 22 1012.0
20260505014047 76 248 5.0 15.0 0.00 0.00 0.00 21 1012.0
20260505013548 76 316 7.0 15.0 0.00 0.00 0.00 21 1012.1
20260505013047 76 310 5.0 12.0 0.00 0.00 0.00 21 1012.0
20260505012547 76 298 6.0 12.0 0.00 0.00 0.00 21 1012.0
20260505012048 76 293 5.0 13.0 0.00 0.00 0.00 21 1012.0
20260505011547 76 234 6.0 14.0 0.00 0.00 0.00 21 1012.0
20260505011047 77 286 8.0 15.0 0.00 0.00 0.00 21 1012.0
20260505010547 77 286 7.0 15.0 0.00 0.00 0.00 21 1012.0
20260505010057 77 259 4.0 12.0 0.00 0.00 0.00 21 1011.9
20260505005547 77 290 6.0 13.0 0.00 0.00 0.00 21 1011.8
20260505005047 77 257 8.0 13.0 0.00 0.00 0.00 20 1011.8
20260505004546 77 244 5.0 12.0 0.00 0.00 0.00 20 1011.9
20260505004045 77 286 6.0 13.0 0.00 0.00 0.00 20 1012.0
20260505003545 77 295 6.0 15.0 0.00 0.00 0.00 20 1012.3
20260505003043 77 286 9.0 15.0 0.00 0.00 0.00 19 1012.3
20260505002544 78 276 7.0 16.0 0.00 0.00 0.00 20 1012.4
20260505002043 78 281 9.0 16.0 0.00 0.00 0.00 19 1012.5
20260505001543 78 244 6.0 13.0 0.00 0.00 0.00 19 1012.5
20260505001043 78 298 8.0 15.0 0.00 0.00 0.00 19 1012.5
20260505000543 78 254 7.0 15.0 0.00 0.00 0.00 19 1012.6
20260505000054 78 266 7.0 18.0 0.00 0.00 0.00 19 1012.6
20260504235544 78 263 9.0 18.0 0.00 0.00 0.00 18 1012.6
20260504235043 79 252 8.0 15.0 0.00 0.00 0.00 18 1012.6
20260504234542 79 251 8.0 14.0 0.00 0.00 0.00 18 1012.5
20260504234044 79 281 8.0 16.0 0.00 0.00 0.00 18 1012.5
20260504233541 79 316 8.0 19.0 0.00 0.00 0.00 18 1012.6
20260504233041 79 246 9.0 19.0 0.00 0.00 0.00 18 1012.6
20260504232541 79 262 6.0 14.0 0.00 0.00 0.00 18 1012.4
20260504232041 79 312 8.0 16.0 0.00 0.00 0.00 17 1012.5
20260504231541 80 297 8.0 16.0 0.00 0.00 0.00 18 1012.5
20260504231041 80 292 6.0 16.0 0.00 0.00 0.00 18 1012.4
20260504230540 80 281 8.0 16.0 0.00 0.00 0.00 17 1012.4
20260504230040 80 286 8.0 18.0 0.00 0.00 0.00 17 1012.4
20260504225539 81 204 8.0 18.0 0.00 0.00 0.00 17 1012.3
20260504225040 81 331 8.0 16.0 0.00 0.00 0.00 17 1012.4
20260504224538 81 286 8.0 15.0 0.00 0.00 0.00 17 1012.5
20260504224041 81 290 7.0 14.0 0.00 0.00 0.00 16 1012.5
20260504223537 81 290 5.0 14.0 0.00 0.00 0.00 17 1012.5
20260504223036 81 261 8.0 14.0 0.00 0.00 0.00 17 1012.6
20260504222534 81 243 6.0 20.0 0.00 0.00 0.00 16 1012.7
20260504222034 80 286 11.0 20.0 0.00 0.00 0.00 16 1012.8
20260504221532 81 300 11.0 20.0 0.00 0.00 0.00 15 1012.9
20260504221032 80 242 11.0 15.0 0.00 0.00 0.00 16 1013.0
20260504220530 79 281 8.0 16.0 0.00 0.00 0.00 16 1012.9
20260504220043 79 247 8.0 15.0 0.00 0.00 0.00 15 1013.1
20260504215529 79 252 7.0 15.0 0.00 0.00 0.00 16 1013.2
20260504215029 79 259 9.0 15.0 0.00 0.00 0.00 16 1013.2
20260504214533 79 281 8.0 20.0 0.00 0.00 0.00 17 1013.3
20260504214030 79 250 8.0 21.0 0.00 0.00 0.00 17 1013.2
20260504213527 79 244 13.0 21.0 0.00 0.00 0.00 17 1013.3
20260504213026 79 203 7.0 18.0 0.00 0.00 0.00 18 1013.3
20260504212526 79 296 9.0 20.0 0.00 0.00 0.00 18 1013.5
20260504212026 79 257 9.0 20.0 0.00 0.00 0.00 18 1013.5
20260504211533 79 300 7.0 16.0 0.00 0.00 0.00 17 1013.6
20260504211024 80 315 8.0 16.0 0.00 0.00 0.00 18 1013.7
20260504210523 80 259 7.0 16.0 0.00 0.00 0.00 17 1013.7
20260504210022 80 240 8.0 15.0 0.00 0.00 0.00 18 1013.7
20260504205522 79 242 9.0 15.0 0.00 0.00 0.00 19 1013.9
20260504205020 79 270 5.0 19.0 0.00 0.00 0.00 19 1013.9
20260504204534 79 243 10.0 19.0 0.00 0.00 0.00 19 1013.9
20260504204019 80 256 7.0 18.0 0.00 0.00 0.00 19 1014.0
20260504203519 80 205 8.0 16.0 0.00 0.00 0.00 20 1014.1
20260504203018 79 201 9.0 16.0 0.00 0.00 0.00 20 1014.1
20260504202517 79 223 6.0 13.0 0.00 0.00 0.00 21 1014.2
20260504202015 78 205 8.0 14.0 0.00 0.00 0.00 21 1014.1
20260504201514 78 240 8.0 13.0 0.00 0.00 0.00 21 1014.3
20260504201013 78 233 6.0 13.0 0.00 0.00 0.00 20 1014.3
20260504200513 77 193 4.0 10.0 0.00 0.00 0.00 21 1014.4
20260504200011 76 199 5.0 11.0 0.00 0.00 0.00 19 1014.6
20260504195511 76 276 7.0 11.0 0.00 0.00 0.00 21 1014.7
20260504195010 76 223 5.0 12.0 0.00 0.00 0.00 21 1014.9
20260504194509 76 238 7.0 16.0 0.00 0.00 0.00 21 1014.9
20260504194011 75 248 9.0 16.0 0.00 0.00 0.00 20 1015.0
20260504193509 75 250 8.0 15.0 0.00 0.00 0.00 21 1015.0
20260504193005 75 265 8.0 13.0 0.00 0.00 0.00 22 1015.0
20260504192504 75 220 6.0 10.0 0.00 0.00 0.00 25 1015.0
20260504192006 75 254 5.0 13.0 0.00 0.00 0.00 24 1014.9
20260504191505 75 186 7.0 13.0 0.00 0.00 0.00 25 1015.0
20260504191005 75 198 5.0 10.0 0.00 0.00 0.00 24 1015.1
20260504190503 74 328 3.0 9.0 0.00 0.00 0.00 26 1015.2
20260504190002 73 281 4.0 10.0 0.00 0.00 0.00 25 1015.2
20260504185601 73 222 6.0 10.0 0.00 0.00 0.00 27 1015.3
20260504185058 72 225 4.0 9.0 0.00 0.00 0.00 28 1015.5
20260504184557 72 241 5.0 10.0 0.00 0.00 0.00 28 1015.4
20260504184059 71 272 5.0 10.0 0.00 0.00 0.00 28 1015.6
20260504183555 71 234 6.0 11.0 0.00 0.00 0.00 29 1015.5
20260504183100 71 222 5.0 10.0 0.00 0.00 0.00 29 1015.6
20260504182553 71 220 6.0 13.0 0.00 0.00 0.00 29 1015.6
20260504182053 71 185 6.0 13.0 0.00 0.00 0.00 29 1015.7
20260504181552 70 259 8.0 13.0 0.00 0.00 0.00 30 1015.7
20260504181052 70 244 7.0 13.0 0.00 0.00 0.00 31 1015.7
20260504180552 70 292 7.0 14.0 0.00 0.00 0.00 31 1015.8
20260504180130 70 241 9.0 14.0 0.00 0.00 0.00 31 1015.9
20260504175551 70 250 7.0 12.0 0.00 0.00 0.00 32 1016.0
20260504175051 70 259 7.0 11.0 0.00 0.00 0.00 32 1016.2
20260504174548 70 252 4.0 11.0 0.00 0.00 0.00 34 1016.3
20260504174048 70 251 6.0 10.0 0.00 0.00 0.00 33 1016.4
20260504173546 70 270 3.0 11.0 0.00 0.00 0.00 33 1016.4
20260504173047 69 240 6.0 11.0 0.00 0.00 0.00 33 1016.3
20260504172546 69 206 1.0 10.0 0.00 0.00 0.00 34 1016.4
20260504172045 69 263 6.0 10.0 0.00 0.00 0.00 33 1016.4
20260504171549 69 210 2.0 6.0 0.00 0.00 0.00 34 1016.5
20260504171045 69 123 1.0 9.0 0.00 0.00 0.00 34 1016.5
20260504170543 69 281 5.0 9.0 0.00 0.00 0.00 34 1016.5